sat.trackr.live / text

‹ back to catalog

STARLINK-30971

NORAD 58443 · 2023-183G

PAYLOAD ACTIVE UNKNOWN

§ Identity

Operator
Country
US
Launch date
2023-11-28
Launch site
AFETR
Launch vehicle
Mass (kg)
RCS (m²)

Purposes: comms

External: N2YO · Heavens-Above · Gunter

§ Orbital elements

Epoch: 2026-05-24T19:45:29.143872Z

Period
94.27 min
Inclination
43.0010°
Eccentricity
0.0001394
Mean motion
15.27580429 rev/d
Perigee alt
482.1 km
Apogee alt
484.0 km
Semi-major
6,861.2 km
B*
-1.5630e-5
RAAN
332.0248°
Arg perigee
261.1642°
Mean anomaly
98.9052°
Rev number
13,837

§ Raw data

STARLINK-309711 58443U 23183G   26144.82325398 -.00000692  00000+0 -15630-4 0  99952 58443  43.0010 332.0248 0001394 261.1642  98.9052 15.27580429138373

JSON: /api/v1/satellites/58443 · /tle

For live sub-satellite position, see the globe view (requires WebGL).

§ Visibility from observer

Set your observer location to see the next 7 days of passes ≥ 10°. The values pass through the URL so the page stays shareable.

No JS? Fill the form by hand. The geolocation button needs JavaScript.